Tracking 31011 objects as of 12-Jul-2025
HD Live streaming from Space Station
objects crossing your sky now

SL-14 DEB

Track SL-14 DEB now!
10-day predictions


NORAD ID: 35530
Int'l Code: 1991-068AX
Perigee: 1,476.7 km
Apogee: 1,512.6 km
Inclination: 82.7 °
Period: 115.7 minutes
Semi major axis: 7865 km
RCS: 0.0142 m2 (small)
Launch date: September 28, 1991
Source: Commonwealth of Independent States (former USSR) (CIS)
Launch site: PLESETSK MISSILE AND SPACE COMPLEX (PKMTR)

Note: This is SATELLITE DEBRIS
Your satellite tracking list
Your tracking list is empty




NASA's NSSDC Master Catalog

Two Line Element Set (TLE):
1 35530U 91068AX  25189.18434366  .00000073  00000-0  44668-3 0  9991
2 35530  82.7085 158.3253 0022822 244.8194 135.8170 12.44516752536346
Source of the keplerian elements: AFSPC